Home > Weather > Toulouse > Past weeks

Flag for France Past Weather in Toulouse, Midi-Pyrénées, France — Yesterday and Last 2 Weeks

Now
66 °F

Clear.


Feels Like: 66 °F
Forecast: 58 / 83 °F
Wind: 9 mph from West

Location: Toulouse / Blagnac

Current Time: Aug 30, 2016 at 1:37:56 AM

Latest Report: Aug 30, 2016 at 1:00 AM


Visibility: 10 mi

Pressure: 30.21 "Hg

Humidity: 73%

Dew Point: 57 °F

Location of ToulouseLocation

Past Weather in Toulouse — Graph

°F

Toulouse Temperature Yesterday

Maximum temperature yesterday: 75 °F (at 2:30 PM)
Minimum temperature yesterday: 66 °F (at 7:00 AM)
Average temperature yesterday: 71 °F

High & Low Weather Summary for the Past Weeks

 TemperatureHumidityPressure
High95 °F (Aug 24, 5:30 PM)94% (Aug 19, 5:00 AM)30.33 "Hg (Aug 19, 5:00 AM)
Low55 °F (Aug 22, 6:30 AM)19% (Aug 25, 5:00 PM)29.83 "Hg (Aug 19, 10:30 AM)
Average75 °F57%30.07 "Hg
* Reported Aug 15 12:00 AM — Aug 30 12:00 AM, Toulouse, Weather by CustomWeather, © 2016

Note: Actual official high and low records may vary slightly from our data, if they occured in-between our weather recording intervals... More about our weather records

Advertising

Toulouse Weather History for the Previous 24 Hours

Scroll right to see more
 ConditionsComfort  
Time TempWeatherWind HumidityBarometerVisibility
12:00 AM
Tue, Aug 30
68 °FClear.8 mph73%30.24 "Hg10 mi
11:30 PM
Mon, Aug 29
68 °FClear.10 mph73%30.24 "Hg10 mi
11:00 PM68 °FClear.13 mph73%30.24 "Hg10 mi
10:30 PM68 °FClear.13 mph73%30.24 "Hg10 mi
10:00 PM68 °FOvercast.12 mph73%30.21 "HgN/A
9:30 PM70 °FSunny.15 mph69%30.21 "Hg10 mi
9:00 PM70 °FSunny.16 mph69%30.21 "Hg10 mi
8:30 PM70 °FSunny.13 mph69%30.21 "Hg10 mi
8:00 PM72 °FMostly cloudy.15 mph65%30.18 "HgN/A
7:30 PM73 °FSunny.12 mph61%30.18 "Hg10 mi
7:00 PM73 °FSunny.9 mph61%30.18 "Hg10 mi
6:30 PM75 °FPartly sunny.8 mph47%30.21 "HgN/A
6:00 PM75 °FPartly sunny.9 mph47%30.21 "HgN/A
5:30 PM75 °FMostly cloudy.9 mph47%30.21 "HgN/A
5:00 PM73 °FMostly cloudy.9 mph50%30.21 "HgN/A
4:30 PM75 °FMore clouds than sun.10 mph50%30.21 "HgN/A
4:00 PM75 °FOvercast.9 mph50%30.21 "HgN/A
3:30 PM73 °FMostly cloudy.12 mph53%30.21 "HgN/A
3:00 PM73 °FMostly cloudy.12 mph50%30.21 "HgN/A
2:30 PM75 °FMore clouds than sun.12 mph50%30.21 "HgN/A
2:00 PM73 °FBroken clouds.9 mph53%30.24 "HgN/A
1:30 PM72 °FBroken clouds.9 mph61%30.24 "HgN/A
1:00 PM72 °FCloudy.10 mph61%30.24 "HgN/A
12:30 PM70 °FMostly cloudy.10 mph60%30.24 "HgN/A
12:00 PM70 °FMostly cloudy.10 mph60%30.24 "HgN/A
11:30 AM70 °FMostly cloudy.9 mph64%30.24 "HgN/A
11:00 AM70 °FCloudy.7 mph69%30.24 "HgN/A
10:30 AM68 °FMostly cloudy.7 mph73%30.24 "HgN/A
10:00 AM68 °FMostly cloudy.6 mph73%30.24 "HgN/A
9:30 AM66 °FOvercast.8 mph78%30.24 "HgN/A
9:00 AM66 °FOvercast.8 mph78%30.24 "HgN/A
8:30 AM66 °FOvercast.7 mph83%30.24 "HgN/A
8:00 AM66 °FOvercast.7 mph78%30.21 "HgN/A
7:30 AM66 °FMostly cloudy.7 mph83%30.21 "HgN/A
7:00 AM66 °FPassing clouds.7 mph83%30.21 "HgN/A
6:30 AM68 °FMostly cloudy.10 mph73%30.21 "HgN/A
6:00 AM68 °FOvercast.12 mph73%30.21 "HgN/A
5:30 AM68 °FOvercast.13 mph73%30.21 "HgN/A
5:00 AM70 °FOvercast.10 mph73%30.21 "HgN/A
4:30 AM70 °FMostly cloudy.10 mph73%30.21 "HgN/A
4:00 AM70 °FMostly cloudy.12 mph73%30.21 "HgN/A
3:30 AM70 °FOvercast.9 mph73%30.21 "HgN/A
3:00 AM70 °FPassing clouds.9 mph73%30.21 "HgN/A
2:30 AM72 °FClear.10 mph69%30.21 "Hg10 mi
2:00 AM72 °FClear.10 mph65%30.21 "Hg10 mi
1:30 AM72 °FClear.9 mph65%30.21 "Hg10 mi
1:00 AM72 °FPassing clouds.8 mph65%30.21 "HgN/A
Weather by CustomWeather, © 2016

See weather overviewHow to use our weather pages